Theta_e
342 341 340 333 322 320 314 316 322 320 323 327 329 327 325 328 323 321 347 349 349 352 347 356 362 362 362 362 364 363 362 362 363 362 360 359 358 358 358 357 355 353 351 349 348 348 350 351 350
340 336 334 329 317 310 311 320 317 320 324 327 328 328 327 325 336 341 343 348 351 353 348 351 362 362 361 361 362 363 363 363 362 360 359 358 358 357 357 355 354 352 350 348 348 348 349 350 347
333 334 324 321 316 308 311 317 318 322 325 326 326 329 327 330 340 340 349 348 351 353 347 354 362 361 361 359 360 361 361 361 360 358 357 357 357 357 356 354 353 350 348 347 347 347 347 347 345
332 328 325 315 311 316 316 318 320 321 326 327 326 323 334 344 341 346 349 348 350 351 347 358 362 361 361 359 359 359 360 359 358 357 357 357 357 357 355 353 351 349 347 346 346 345 343 343 343
328 322 315 314 314 316 319 319 321 318 322 324 326 322 329 346 348 348 347 347 349 349 349 356 362 361 361 358 358 358 359 359 358 356 356 357 357 356 354 351 349 347 347 346 345 344 342 341 342
318 319 311 310 313 316 319 320 319 318 323 325 324 325 333 348 348 348 346 346 348 347 352 355 360 362 361 360 359 359 359 358 358 358 357 357 357 356 354 352 348 346 347 346 346 345 344 342 342
314 314 311 313 313 314 316 321 317 317 320 323 328 322 329 341 349 348 346 348 347 348 350 355 352 359 361 360 360 360 359 358 358 358 358 357 357 357 355 352 349 347 348 348 348 347 346 345 344
316 314 310 313 312 313 319 320 318 317 319 328 328 322 327 344 349 348 347 346 346 347 348 352 352 351 352 353 359 359 358 357 357 356 356 356 356 356 355 354 352 349 348 348 348 348 348 348 349
316 309 308 311 313 315 320 316 320 320 319 322 324 328 337 347 348 346 345 344 344 345 346 349 349 350 351 349 354 357 357 356 355 355 355 355 348 349 351 353 356 353 349 349 350 351 351 351 351
310 308 309 315 317 316 318 316 317 316 317 319 322 334 342 345 345 342 341 339 341 342 342 344 346 347 348 347 354 351 349 350 349 348 350 348 345 347 347 352 356 354 352 352 353 353 353 350 342
311 307 312 313 314 317 315 316 318 315 315 319 317 324 339 341 344 340 339 339 340 342 341 341 345 347 346 345 351 352 345 346 347 350 352 353 344 345 345 345 349 350 351 343 348 346 345 341 344
308 311 311 312 314 314 314 317 315 317 318 322 321 322 331 336 340 339 337 338 340 340 341 341 343 346 348 345 345 347 346 345 346 348 353 353 348 346 346 343 342 345 343 345 344 342 347 348 351
309 311 312 313 313 314 315 313 315 317 321 323 323 323 323 332 337 340 338 338 341 340 341 342 343 348 349 352 347 346 345 345 347 348 352 351 349 348 346 345 343 342 341 340 343 345 349 348 349
312 311 312 313 313 314 313 315 316 318 320 320 320 321 322 327 335 338 340 339 341 343 343 344 344 352 350 355 354 348 347 348 347 346 347 353 352 353 346 345 345 343 342 341 345 344 347 343 342
312 309 312 311 313 313 315 311 312 318 319 318 319 320 321 324 331 337 341 342 343 344 347 348 349 350 356 353 354 352 347 346 345 345 352 352 357 357 357 346 345 345 347 348 348 344 340 340 339
309 310 307 312 313 314 313 308 315 319 318 317 318 320 320 326 331 337 340 344 346 346 347 350 347 349 355 355 355 351 350 348 347 347 347 350 351 355 358 349 348 349 352 349 344 341 335 339 335
309 305 306 308 313 312 312 309 316 320 318 317 319 320 320 322 327 335 340 342 346 349 349 350 352 347 350 360 354 356 359 351 350 349 348 351 349 350 355 350 350 357 351 344 341 338 337 335 334
305 305 307 306 311 312 310 310 315 320 320 319 319 321 321 322 325 330 339 344 344 348 354 355 356 360 360 354 357 353 351 351 351 350 353 354 349 351 353 349 351 349 345 341 339 334 333 332 330
307 306 305 308 311 309 309 310 316 319 320 321 322 325 328 330 334 338 339 339 339 347 357 363 359 370 358 350 348 351 349 351 350 344 345 350 353 350 352 348 352 347 344 337 333 332 329 329 333
308 307 307 310 311 310 309 311 316 319 321 323 325 328 333 335 339 340 340 335 338 346 351 360 363 369 365 356 356 354 352 347 344 338 339 343 346 345 348 348 343 347 345 337 333 331 325 327 332
308 306 306 306 309 312 310 310 315 318 322 325 328 330 334 335 339 343 344 343 337 339 349 352 364 368 367 367 362 357 354 351 342 339 340 347 352 353 356 354 351 348 339 332 329 328 326 323 329
307 309 308 307 307 305 312 298 312 316 317 322 326 328 330 334 337 341 345 347 344 343 345 349 353 359 362 368 363 366 351 347 346 345 351 355 357 356 355 358 354 347 337 331 331 329 330 326 326
308 310 309 308 307 307 306 303 310 314 313 319 323 326 328 332 335 337 340 347 350 348 344 348 351 357 361 363 361 355 356 352 351 351 362 363 361 357 353 353 350 344 338 336 334 329 328 329 328
312 310 311 309 308 302 304 305 307 310 313 319 323 325 328 330 333 337 340 342 347 351 351 351 350 350 355 354 355 358 358 358 349 351 348 349 351 353 351 351 350 343 338 338 337 331 330 326 324
311 309 302 300 300 300 306 303 309 314 317 320 321 324 326 330 332 334 337 338 343 349 353 353 355 353 354 353 351 353 355 356 355 353 344 346 343 344 346 343 343 342 338 332 325 324 323 322 323
308 308 303 295 298 300 306 302 307 317 320 321 323 325 327 328 330 332 334 339 342 348 348 352 353 354 355 355 355 356 351 345 342 345 341 338 340 340 337 337 328 325 325 325 324 323 326 329 328
309 308 310 304 306 302 304 308 313 317 318 319 320 323 324 326 329 330 332 335 340 343 344 345 348 348 347 345 346 348 345 343 341 342 342 341 335 330 326 324 323 323 322 322 321 324 327 328 327
311 312 304 307 298 296 301 303 306 313 314 317 318 321 323 324 323 327 330 332 334 337 339 340 340 337 345 346 344 343 342 340 341 341 337 333 329 326 324 328 326 327 322 322 324 326 330 326 326
308 308 309 308 305 299 297 303 316 314 315 315 317 320 320 321 321 322 323 327 330 332 333 337 337 336 337 338 342 342 340 339 340 336 334 331 329 329 328 328 326 325 326 325 327 326 325 325 326
310 308 309 302 300 303 301 300 317 315 315 316 316 318 319 321 321 322 322 322 323 326 330 332 335 337 340 338 341 341 341 340 338 336 333 332 330 331 329 327 326 326 326 326 324 322 321 320 320
Wind_Speed
10 13 12 10 10 1 5 10 7 1 5 5 6 11 10 5 16 8 5 9 9 22 19 19 15 15 14 14 14 14 14 14 14 14 13 12 11 10 9 8 8 8 8 7 7 6 5 6 5
14 11 10 9 13 6 13 9 6 6 9 5 2 7 4 9 10 9 8 7 13 21 18 19 16 15 15 15 14 14 14 13 12 12 13 12 11 10 9 9 8 8 8 8 7 5 5 5 4
15 14 12 12 16 16 3 8 7 9 3 6 4 6 5 14 9 4 11 12 14 18 18 18 17 15 15 16 14 13 14 13 13 13 12 11 11 10 9 8 8 9 8 8 7 5 5 5 4
13 11 10 12 12 12 8 8 3 1 11 7 5 8 9 10 4 8 12 12 16 18 18 21 17 16 15 15 15 13 13 12 12 12 11 11 10 9 9 8 8 8 8 8 7 6 4 3 3
10 10 12 13 6 8 3 4 5 8 1 3 2 4 13 14 10 11 12 13 14 17 18 18 16 15 14 15 15 13 13 12 11 11 11 10 10 9 9 9 8 8 8 8 7 6 5 4 4
11 12 14 15 6 6 2 5 8 9 3 5 6 9 14 12 11 10 12 11 13 16 19 17 16 15 14 13 13 12 12 11 11 11 10 10 10 10 9 8 8 8 8 8 7 7 6 5 5
14 12 15 19 4 3 3 7 8 9 11 8 10 20 24 7 13 11 11 11 12 15 16 16 17 14 13 13 13 13 12 11 11 10 10 10 10 10 10 9 9 9 9 9 8 8 8 8 8
11 12 18 14 9 9 7 9 5 8 11 2 4 8 7 15 10 11 11 11 12 13 15 17 16 16 15 15 14 13 12 13 12 12 12 11 11 11 11 10 11 12 11 10 9 10 10 10 10
8 12 12 15 11 8 7 7 6 5 9 6 5 9 9 12 10 10 10 11 11 12 14 17 17 18 16 17 16 13 14 14 13 12 12 11 10 13 14 13 10 14 13 12 12 12 11 11 12
9 11 14 8 10 7 10 8 8 7 10 9 7 14 10 11 9 9 10 9 11 13 15 14 16 17 17 13 17 15 14 12 12 13 13 11 12 11 10 9 17 15 14 13 13 12 12 12 11
10 13 10 9 6 11 12 11 9 10 13 8 9 4 11 9 10 10 10 10 12 14 12 14 13 13 16 12 12 9 9 10 10 13 11 11 10 10 9 7 10 10 15 10 14 12 11 14 12
10 5 8 10 6 9 12 10 10 14 14 14 11 10 9 10 11 11 10 11 12 14 14 14 16 12 12 9 8 8 9 9 9 12 13 9 7 9 9 8 10 11 9 12 11 10 15 15 6
9 4 5 8 11 12 9 11 14 13 16 11 14 13 9 10 9 9 6 9 12 13 14 14 14 14 12 10 8 9 9 9 10 9 12 10 10 9 9 9 9 9 8 9 8 9 2 6 8
6 9 11 9 9 7 10 11 6 16 13 14 12 11 11 11 11 8 8 9 11 12 15 14 15 14 13 11 12 8 9 9 9 9 11 14 11 9 10 10 10 10 9 8 1 8 8 6 7
10 14 14 6 4 3 7 15 15 7 12 8 6 5 6 7 6 9 11 11 12 13 13 15 15 16 14 15 13 11 10 11 10 10 11 13 13 11 10 10 10 10 11 7 8 7 5 4 5
13 16 13 11 6 7 13 4 11 10 9 8 6 6 3 6 8 9 9 11 11 12 15 14 14 16 16 14 12 11 10 9 9 9 9 12 12 11 8 10 11 10 3 7 8 10 5 2 3
11 10 6 7 3 7 8 12 8 6 8 8 8 8 2 5 9 7 8 10 12 13 13 16 14 16 17 15 11 10 9 8 8 8 9 10 10 11 8 7 6 2 0 3 4 1 2 3 3
9 5 6 7 6 10 16 7 4 9 10 6 5 8 8 10 11 10 3 10 12 14 14 13 13 14 11 11 9 9 9 8 8 7 5 8 3 6 8 11 9 6 6 6 4 2 1 4 6
6 6 6 2 4 9 13 9 13 6 13 15 15 15 13 10 8 12 11 11 8 12 12 13 12 10 10 10 11 11 10 7 4 6 15 21 7 8 6 5 5 6 11 13 5 4 4 7 10
5 9 8 9 1 10 3 5 8 7 18 15 16 14 15 12 16 12 12 9 5 9 11 10 12 11 12 10 9 9 8 5 4 7 10 18 14 13 10 11 8 8 10 11 10 10 5 4 6
5 10 8 10 9 8 10 7 13 15 16 15 17 17 16 17 16 16 16 15 10 2 6 11 10 11 10 10 7 4 6 5 3 4 4 13 20 18 16 15 12 10 10 11 13 11 10 7 10
7 6 7 9 12 7 6 5 13 14 15 15 17 17 18 18 18 17 18 17 14 11 7 6 8 9 10 8 10 10 10 10 8 9 10 10 12 14 14 13 12 10 10 12 11 9 7 7 8
7 7 8 8 9 7 7 9 12 11 12 14 16 18 18 19 19 19 19 17 16 12 9 7 6 6 7 10 9 8 10 10 9 8 7 7 7 6 12 11 11 9 10 11 12 11 10 10 7
10 13 13 6 10 10 2 10 12 13 11 13 15 17 17 18 19 20 19 18 15 14 12 8 4 2 4 1 3 8 12 9 8 4 7 7 6 4 7 8 8 9 10 14 11 9 7 6 4
10 13 11 8 8 5 6 8 11 10 11 14 14 16 17 17 18 19 21 18 17 18 18 12 11 10 9 6 1 4 6 5 5 6 7 9 7 5 6 5 7 6 10 3 4 3 2 6 6
7 9 9 7 11 9 9 4 10 11 11 11 14 14 15 16 17 19 20 19 19 20 19 16 13 10 8 8 10 11 13 9 6 6 7 8 8 7 8 6 8 8 6 4 4 3 3 6 4
7 3 9 8 17 10 3 14 13 9 10 10 13 14 15 15 16 17 19 17 18 18 18 17 20 13 12 10 7 8 7 8 8 7 7 7 6 4 6 7 8 8 10 8 5 7 8 1 4
6 6 8 5 7 10 12 11 10 9 8 11 12 14 15 15 17 16 16 18 17 17 14 17 17 18 12 15 11 9 8 8 6 7 7 7 6 5 5 7 10 8 7 4 4 6 4 2 5
10 9 6 6 10 9 11 5 9 8 9 12 13 14 14 15 15 15 15 16 17 18 18 16 13 14 14 13 11 11 8 6 6 5 6 6 5 5 5 7 7 6 6 4 4 2 3 4 6
8 7 7 8 12 13 12 13 9 7 10 11 12 12 12 12 14 14 15 16 16 17 15 15 14 13 11 12 12 11 8 7 5 5 5 4 5 5 6 6 5 5 5 4 2 5 5 6 7
Wind_Direction
207 217 242 262 245 239 256 103 27 262 195 62 353 357 16 292 12 20 112 123 159 128 145 155 148 149 152 152 149 147 150 154 155 154 152 153 150 150 155 154 149 148 147 143 136 134 133 122 113
281 272 250 269 249 74 290 79 80 27 39 333 286 308 22 40 31 99 144 146 159 126 147 154 151 151 153 154 152 152 153 155 157 156 156 154 157 160 162 159 159 155 158 151 144 142 132 132 130
266 268 277 252 263 149 172 55 38 88 10 275 265 171 49 26 81 41 83 158 156 139 154 140 154 155 157 160 158 157 157 159 161 162 160 159 163 167 166 165 166 161 169 159 154 153 144 145 146
271 245 238 255 239 67 60 31 318 196 168 171 313 15 104 54 43 49 131 151 147 150 159 138 155 159 159 163 162 162 161 164 167 167 166 169 170 168 167 172 172 172 173 170 165 167 164 167 164
242 269 265 238 281 63 3 29 310 329 146 351 80 114 99 91 93 125 143 162 151 150 148 155 158 160 164 169 169 167 167 168 170 170 174 175 174 175 177 178 178 185 183 183 182 183 194 200 204
255 247 262 249 190 111 69 23 332 340 297 350 133 280 69 111 125 138 153 164 160 148 137 149 160 164 168 174 174 173 173 172 172 175 180 179 182 183 187 190 190 193 192 194 201 204 216 227 235
260 247 249 277 47 42 39 344 14 327 314 134 356 26 63 153 109 147 164 152 161 149 147 151 169 175 175 175 178 180 177 176 174 179 184 186 189 191 195 196 200 200 204 204 212 218 224 232 239
273 271 275 262 272 231 66 281 21 20 335 20 269 19 77 98 139 147 142 161 162 158 163 156 176 178 184 180 184 185 182 181 182 185 190 194 198 203 204 203 207 207 209 214 218 224 228 234 238
247 268 249 245 216 264 161 326 360 329 283 319 347 45 53 119 157 162 148 169 168 170 179 164 179 177 192 186 174 185 191 192 190 195 200 193 216 197 207 209 211 197 205 215 221 226 232 239 244
242 231 250 286 359 317 334 304 317 308 298 283 198 123 129 150 180 174 174 173 172 179 183 181 181 182 190 198 160 188 191 201 202 203 197 215 216 232 215 209 174 191 205 217 223 227 232 238 253
218 265 346 340 301 273 288 282 300 298 283 348 349 2 152 173 191 209 187 166 173 176 188 191 182 193 191 199 164 183 202 199 203 214 213 213 227 218 219 215 186 209 204 221 208 213 227 235 242
265 215 293 276 261 240 262 304 292 283 295 315 294 283 167 193 198 222 185 164 167 168 189 191 177 190 223 197 195 203 195 201 205 201 209 235 214 242 235 222 231 200 205 208 235 212 213 220 255
243 277 282 256 247 251 287 273 266 284 270 307 293 289 246 191 215 219 201 175 171 172 179 192 191 186 197 234 212 217 213 204 213 212 196 221 228 227 236 237 249 253 221 226 215 239 357 49 26
354 292 289 269 266 253 263 273 288 272 350 294 286 280 248 226 191 219 203 197 184 181 177 193 191 171 201 205 234 220 226 228 212 224 213 199 234 231 236 234 235 238 240 240 152 73 72 57 27
277 271 262 192 211 260 279 243 234 10 303 308 297 252 261 284 220 210 195 208 189 187 192 192 196 186 198 201 210 229 227 220 230 221 227 214 205 239 246 244 247 235 230 165 100 106 128 145 163
248 245 240 124 273 119 266 326 57 359 320 311 334 313 270 220 234 202 222 204 207 208 193 203 201 193 192 213 205 220 226 248 241 244 242 219 244 246 251 263 276 260 128 178 173 166 195 194 228
208 249 342 136 117 297 250 317 45 339 322 319 300 323 4 241 209 196 219 231 208 210 210 200 210 217 194 201 220 216 240 225 251 270 264 245 234 239 221 264 265 169 170 276 199 155 317 351 320
33 325 160 284 67 333 290 351 32 4 314 350 339 338 336 332 344 6 210 221 239 212 207 215 203 219 226 197 204 234 222 227 224 238 292 288 273 214 202 220 201 137 180 189 228 353 157 193 224
339 296 270 310 47 307 286 284 52 18 31 37 26 21 359 344 356 13 349 312 267 245 211 198 218 197 214 221 209 208 217 225 151 86 75 331 252 240 197 219 205 178 186 196 171 98 358 347 299
259 266 33 268 133 276 306 155 94 84 52 47 41 36 20 32 43 31 25 2 287 241 237 211 205 216 202 217 227 237 199 213 221 213 132 206 242 240 241 233 250 190 197 177 166 158 186 162 261
141 356 357 324 301 238 256 144 130 76 72 52 48 38 52 37 31 53 48 35 15 337 233 239 223 212 226 228 233 210 214 219 297 293 204 225 229 227 228 229 228 194 173 172 171 182 196 186 179
93 31 308 303 286 228 178 222 74 73 61 48 46 36 38 44 42 38 38 47 52 21 358 257 242 211 203 213 243 245 240 244 246 238 246 203 214 239 253 248 234 193 183 182 179 196 190 234 178
14 334 314 298 279 267 202 127 134 73 46 40 43 37 27 40 44 31 32 38 33 73 40 13 335 248 220 178 187 272 242 262 250 258 275 288 280 262 265 243 229 198 193 188 186 202 212 212 203
302 268 236 221 232 222 61 299 67 55 40 40 34 35 25 28 33 38 22 32 29 31 54 61 69 280 99 80 146 243 280 276 294 279 285 264 232 223 256 250 245 191 200 199 201 210 200 174 156
228 264 275 224 216 88 96 266 66 65 50 44 37 36 27 23 31 33 21 21 22 28 16 41 31 26 35 51 68 239 254 272 280 319 342 331 304 279 257 272 253 217 219 154 138 123 169 168 183
354 329 350 328 343 359 148 189 101 93 64 44 43 37 27 29 32 37 30 16 18 39 11 15 24 27 37 45 42 29 20 7 332 360 329 312 337 27 11 24 49 50 53 102 91 30 240 235 216
6 346 6 296 254 257 156 106 134 92 52 42 44 30 25 24 32 31 35 34 25 26 17 8 5 23 31 44 25 20 14 344 347 343 329 6 34 53 82 100 118 120 133 134 156 183 245 186 218
327 353 295 233 309 320 327 332 83 73 36 20 25 21 20 21 29 24 41 26 28 39 31 14 8 1 14 3 13 357 349 352 0 19 16 21 39 61 88 102 98 111 111 152 201 241 177 232 277
327 325 358 307 283 316 297 7 65 55 43 12 17 18 22 18 26 28 29 31 35 28 26 28 19 2 356 345 340 341 345 350 11 28 22 36 65 84 87 105 122 134 133 216 216 298 315 255 255
275 332 353 332 323 323 311 286 76 64 46 24 8 12 31 18 13 24 26 31 26 24 25 22 12 10 354 333 346 349 359 344 13 9 47 52 93 90 103 121 145 172 164 144 222 229 272 294 300